Location: Observatory
(52.1446°N, 0.4624°W)
Time: 02:06:36
(UTC+01:00)

ISS - Pass Details

Date: 21 May 2018
Orbit: 402 x 406 km, 51.6° (Epoch: 21 June)

Event Time Altitude Azimuth Distance (km) Brightness Sun altitude
Rises 02:50:08 0° 281° (W) 2,321 -0.1 -13.7°
Reaches altitude 10° 02:52:14 10° 276° (W) 1,460 -1.2 -13.6°
Maximum altitude 02:55:26 53° 199° (SSW) 504 -3.8 -13.3°
Drops below altitude 10° 02:58:37 10° 121° (ESE) 1,455 -1.0 -13.1°
Sets 03:00:43 0° 117° (ESE) 2,313 0.1 -12.9°
